EHI
0 0 0 0 0 0 0 0 0 0 0 0 0 0 0 0 0 1 7 19 34 49 64 75 81 87 91 95 98 100 100 99 100 100 100 100 99 99 99 99 98 98 99 100
0 0 0 0 0 0 0 0 0 0 0 0 0 0 0 0 0 2 10 22 35 50 64 71 75 78 82 86 92 96 97 98 99 99 100 99 99 99 98 97 97 98 99 100
0 0 0 0 0 0 0 0 0 0 0 0 0 0 0 0 0 4 13 24 33 43 51 53 54 57 61 67 75 82 88 93 97 98 99 98 99 98 97 96 97 98 98 99
0 0 0 0 0 0 0 0 0 0 0 0 0 0 0 1 4 11 19 24 26 27 29 29 28 30 35 41 48 60 72 82 90 94 96 97 99 99 98 97 96 97 97 97
0 0 0 0 0 0 0 0 0 0 0 0 0 0 0 2 9 18 21 20 17 15 13 12 12 12 14 16 23 36 53 67 78 84 89 93 96 99 98 96 94 92 93 95
0 0 0 0 0 0 0 0 0 0 0 0 0 0 1 5 11 16 15 13 11 9 7 5 5 4 4 5 8 19 36 53 65 73 78 85 90 93 92 91 89 88 89 90
0 0 0 0 0 0 0 0 0 0 0 0 0 0 2 7 10 9 7 6 7 7 5 3 2 1 2 4 5 11 26 42 52 57 63 70 75 74 75 78 80 81 81 82
0 0 0 0 0 0 0 0 0 0 0 0 0 0 3 7 7 4 2 2 3 4 3 2 1 0 1 4 6 10 19 30 36 38 41 46 47 46 49 57 61 63 65 67
0 0 0 0 0 0 0 0 0 0 0 0 0 0 2 3 3 1 0 0 1 2 2 1 1 1 2 4 6 9 16 24 25 23 22 22 22 23 28 34 37 39 45 48
0 0 0 0 0 0 0 0 0 0 0 0 0 0 0 0 0 0 0 0 1 1 1 1 2 2 2 4 6 11 17 22 21 16 11 8 8 10 13 16 19 22 27 30
0 0 0 0 0 0 0 0 0 0 0 0 0 0 0 0 0 0 0 0 0 0 0 1 2 2 1 2 5 11 15 17 17 14 8 4 2 3 5 6 8 11 14 15
0 0 0 0 0 0 0 0 0 0 0 0 0 0 0 0 0 0 0 0 0 0 0 0 1 1 2 2 3 6 8 9 10 9 5 1 0 0 1 2 2 4 5 6
0 0 0 0 0 0 0 0 0 0 0 0 0 0 0 0 0 0 0 0 0 0 0 1 3 6 8 7 4 2 2 4 4 3 1 0 0 0 0 0 0 1 2 2
0 0 0 0 0 0 0 0 0 0 0 0 0 0 0 0 0 0 0 0 0 0 0 2 7 14 18 17 12 6 3 3 3 1 0 0 0 0 0 0 0 0 0 0
0 0 0 0 0 0 0 0 0 0 0 0 0 0 0 0 0 0 0 0 0 0 0 2 8 17 24 26 22 14 9 6 3 1 0 0 0 0 0 0 0 0 0 0
0 0 0 0 0 0 0 0 0 0 0 0 0 0 0 0 0 0 0 0 0 0 0 1 5 13 22 28 27 21 16 10 4 1 0 0 0 0 0 0 0 0 0 0
0 0 0 0 0 0 0 0 0 0 0 0 0 0 0 0 0 0 0 0 0 0 0 0 2 7 17 26 30 27 20 13 6 1 0 0 0 0 0 0 0 0 0 0
0 0 0 0 0 0 0 0 0 0 0 0 0 0 0 0 0 0 0 0 0 0 0 0 1 4 12 23 31 29 19 11 5 1 0 0 0 0 0 0 0 0 0 0
0 0 0 0 0 0 0 0 0 0 0 0 0 0 0 0 0 0 0 0 0 0 0 0 0 3 14 28 34 29 18 8 3 0 0 0 0 0 0 0 0 0 0 0
0 0 0 0 0 0 0 0 0 0 0 0 0 0 0 0 0 0 0 0 0 0 0 1 1 8 26 45 49 37 20 8 3 0 0 0 0 0 0 0 0 0 0 0
0 0 0 0 0 0 0 0 0 0 0 0 0 0 0 0 0 0 0 0 0 0 0 1 3 14 37 60 66 50 28 13 5 2 1 1 0 0 0 0 0 0 0 0
0 0 0 0 0 0 0 0 0 0 0 0 0 0 0 0 0 0 0 0 0 0 0 0 5 17 38 61 71 61 41 24 12 6 5 4 1 0 0 0 0 0 0 0
0 0 0 0 0 0 0 0 0 0 0 0 0 0 0 0 0 0 0 0 0 0 0 0 4 14 30 50 63 61 50 35 21 12 9 6 2 0 0 0 0 0 0 0
0 0 0 0 0 0 0 0 0 0 0 0 0 0 0 0 0 0 0 0 0 0 0 0 1 7 19 33 45 51 49 39 26 16 11 7 3 1 0 0 0 0 0 0
0 0 0 0 0 0 0 0 0 0 0 0 0 0 0 0 0 0 0 0 0 0 0 0 0 3 9 18 27 35 42 37 25 15 9 5 2 1 1 0 0 0 0 0
0 0 0 0 0 0 0 0 0 0 0 0 0 0 0 0 0 0 0 0 0 0 0 0 0 1 4 10 17 26 35 36 25 12 5 2 1 0 1 0 0 0 0 0
Wind_Speed
8 10 9 4 5 10 12 13 13 11 8 5 8 13 16 12 6 4 2 2 4 5 7 9 8 7 6 5 2 1 1 2 3 4 5 6 7 6 5 5 6 7 7 7
7 9 3 8 7 8 10 11 12 12 10 7 10 14 16 14 11 6 2 2 1 5 7 7 7 8 9 8 7 5 4 4 4 4 5 5 5 5 6 5 6 7 7 6
8 4 4 5 7 9 10 10 10 11 12 13 15 17 17 17 12 7 6 4 4 4 5 5 5 6 7 7 6 6 5 5 5 5 5 5 5 5 6 7 6 6 6 7
7 1 1 6 9 9 9 9 10 11 13 13 16 16 14 13 8 9 6 5 5 4 4 4 3 4 5 5 5 4 4 5 5 6 5 7 7 8 8 6 5 6 6 7
7 2 6 8 7 7 10 13 12 14 15 17 17 16 14 10 2 9 9 7 3 3 2 2 2 2 3 5 5 4 4 5 5 6 7 7 7 7 7 7 8 7 7 8
9 4 5 7 7 6 8 11 15 16 14 16 12 12 8 6 9 10 8 5 3 1 1 1 2 1 1 3 4 4 4 5 5 6 7 7 8 9 9 9 8 7 6 7
8 7 5 4 7 6 7 9 9 9 7 4 4 7 4 6 9 8 5 2 1 1 3 3 3 3 3 3 3 3 4 5 6 7 7 7 8 9 10 9 8 8 7 6
6 4 2 2 4 5 6 7 8 9 11 13 12 9 2 9 8 5 3 1 2 3 4 4 5 3 3 3 4 4 4 5 5 6 6 6 7 7 7 8 8 8 7 6
6 6 5 5 5 6 7 6 8 9 13 14 11 6 7 7 4 3 2 3 4 5 5 6 6 4 3 3 3 4 4 4 5 6 6 6 6 7 8 8 8 7 7 6
7 11 11 6 6 8 8 7 6 6 8 11 12 11 5 2 1 1 3 5 6 6 6 6 5 4 3 3 2 3 2 3 4 5 6 7 7 7 7 7 8 7 6 4
9 10 12 10 9 10 7 7 8 8 8 11 13 11 8 5 3 5 8 8 8 8 8 6 5 5 4 4 3 2 2 2 2 3 5 5 6 6 7 6 7 7 5 3
10 9 10 13 13 10 6 7 9 8 9 11 13 12 7 4 3 7 9 10 9 8 7 7 6 5 5 5 5 4 3 2 2 2 3 4 4 6 6 6 7 7 6 3
8 7 11 10 7 5 6 9 11 10 10 11 14 11 5 5 8 9 9 9 8 7 7 6 4 3 4 4 5 5 4 3 2 3 3 3 4 5 5 6 6 6 6 4
4 8 11 14 14 15 15 15 15 13 11 14 16 18 14 13 12 11 10 8 9 7 6 5 3 2 2 3 4 5 5 3 2 2 3 2 2 3 3 4 5 5 6 6
4 8 11 15 17 19 20 19 17 16 15 16 16 16 14 12 12 12 11 10 11 9 7 6 3 2 2 3 3 3 3 2 2 2 2 1 1 1 2 3 4 4 5 6
7 10 14 17 18 19 19 18 16 13 12 13 14 13 14 14 14 13 13 13 12 10 9 7 4 2 2 3 3 3 2 2 3 3 3 2 1 2 3 3 3 3 4 5
10 11 14 15 17 17 14 10 8 7 10 12 13 14 15 15 15 15 15 14 14 12 9 7 5 3 2 3 2 3 3 3 4 4 4 3 3 4 4 3 4 3 4 4
7 7 7 12 14 14 7 11 11 8 10 15 15 16 17 17 17 16 13 12 14 13 11 8 6 4 3 3 3 3 4 4 5 5 5 4 5 6 5 5 4 4 4 4
3 4 7 9 13 13 7 12 11 8 6 18 17 18 20 20 19 15 16 17 16 14 11 8 7 7 4 4 4 4 5 5 6 6 6 6 6 6 7 6 6 5 4 4
6 6 7 10 14 14 9 14 13 10 3 18 19 19 20 21 16 14 19 21 19 15 11 9 8 7 5 5 5 6 6 6 6 6 6 6 6 6 7 7 7 5 5 5
6 7 10 12 13 6 11 14 13 7 10 19 19 20 20 18 16 18 21 19 18 17 15 12 9 6 5 5 6 7 8 7 6 6 6 6 7 6 7 7 7 6 6 6
10 10 9 8 10 4 16 12 9 9 12 15 17 17 18 18 19 20 20 20 19 19 19 16 11 7 5 5 7 9 8 7 6 6 7 7 7 8 8 8 8 7 7 7
5 5 5 5 5 8 12 11 9 11 13 14 16 17 18 19 19 20 19 19 18 19 18 16 14 12 8 6 8 10 9 7 7 6 7 7 8 6 7 9 9 8 7 7
6 8 6 3 8 8 10 11 12 12 14 15 16 17 18 18 19 19 17 17 17 16 16 16 15 14 12 8 9 9 9 8 8 7 7 6 7 7 8 7 7 8 8 7
10 10 7 5 9 10 10 14 16 16 17 18 18 19 19 20 20 19 16 15 15 15 14 15 15 15 13 11 11 9 8 8 9 8 8 8 8 8 8 7 5 6 5 6
8 9 7 5 7 9 12 14 16 17 18 19 20 21 21 20 20 19 17 14 13 14 14 14 15 16 16 14 12 10 8 8 9 9 8 8 7 7 8 8 6 6 5 7
Wind_Direction
220 242 250 277 315 330 320 313 315 312 304 301 292 287 282 280 264 242 267 17 27 32 29 26 19 11 14 20 16 341 281 260 257 250 236 233 236 243 250 240 233 228 223 217
241 246 358 13 331 299 283 282 283 278 273 273 273 273 275 270 258 240 197 111 57 64 51 37 25 14 12 15 8 359 356 320 288 268 264 257 256 253 247 250 248 240 226 219
269 57 33 298 275 269 271 276 291 311 321 303 287 274 265 256 233 195 171 148 115 91 77 54 33 21 6 360 356 355 349 334 320 301 284 279 276 263 258 252 247 242 234 222
281 301 287 282 281 287 295 325 327 314 302 293 294 294 291 282 206 170 134 107 98 88 90 79 44 20 355 348 345 345 352 342 327 314 297 283 271 266 263 263 260 253 243 236
286 299 286 275 289 312 311 324 312 293 283 278 274 274 279 292 163 133 120 114 116 118 86 63 24 16 345 336 336 342 353 340 328 313 299 293 286 280 279 276 269 260 247 235
282 283 272 299 315 293 292 294 286 270 259 263 280 295 297 45 76 106 119 136 145 88 342 9 355 342 329 325 332 342 343 334 328 320 313 305 299 297 292 284 273 264 254 243
284 272 230 223 278 291 299 309 306 310 293 281 347 293 304 96 97 104 116 133 154 301 304 311 315 308 314 318 329 329 333 331 329 324 322 318 312 303 292 288 284 278 270 256
296 305 279 254 303 317 303 298 305 321 317 320 309 289 52 97 91 90 85 27 298 297 302 311 302 293 304 318 325 325 332 329 329 328 328 321 318 312 309 309 302 292 281 271
304 306 288 271 281 287 291 296 321 309 295 293 296 321 97 92 85 66 357 301 293 297 304 303 304 308 311 312 315 320 317 327 332 331 329 317 331 329 321 316 308 298 288 278
286 296 297 275 239 249 251 276 286 288 300 304 308 320 28 80 330 317 307 303 299 297 295 299 304 304 313 310 301 294 301 318 326 330 330 333 344 337 331 328 328 319 305 298
305 295 293 287 268 277 261 269 294 296 292 299 302 305 326 342 8 334 315 304 294 291 300 307 310 316 317 307 307 291 292 308 331 335 335 338 343 342 345 347 348 342 326 323
315 308 306 298 289 285 286 296 291 284 290 294 291 294 325 36 337 305 303 306 307 304 304 304 306 314 317 313 310 305 305 312 326 332 328 346 360 357 358 0 5 6 358 356
348 328 305 298 302 285 284 275 268 265 266 270 278 285 292 289 293 303 312 317 317 311 306 300 297 304 307 306 307 309 308 312 318 323 328 355 7 10 10 10 16 16 21 27
270 277 282 291 300 306 295 287 285 283 281 283 286 295 307 314 319 326 331 331 319 309 302 292 275 255 269 280 287 294 296 304 298 304 322 356 18 26 27 26 32 30 33 44
259 284 291 295 300 298 295 293 292 288 287 289 299 307 325 341 341 340 335 327 317 309 301 295 275 235 227 241 255 270 275 273 282 288 301 298 69 87 81 62 56 55 52 55
312 295 293 288 289 292 292 289 286 290 305 312 319 329 351 351 348 343 336 326 317 309 304 302 300 286 248 239 253 266 273 253 250 258 256 225 175 145 132 118 104 87 78 67
284 296 296 291 296 296 291 302 314 331 344 345 344 349 352 350 350 342 332 328 327 322 321 320 317 298 256 238 230 244 249 229 227 236 236 210 187 172 159 151 135 120 105 97
253 278 283 283 288 281 303 2 357 354 22 16 9 2 356 350 342 328 329 352 345 332 324 320 315 295 260 231 209 217 237 226 225 227 227 210 191 182 170 164 157 148 139 133
188 255 280 284 287 291 337 23 5 344 16 31 7 355 348 342 330 326 347 345 332 324 314 303 289 278 255 222 210 219 234 238 231 226 220 205 192 184 177 175 170 162 154 150
189 201 251 277 289 294 358 4 346 313 296 19 359 351 344 342 332 328 334 327 321 316 310 297 278 269 249 208 195 213 230 237 235 224 213 196 185 185 182 177 172 166 162 160
231 233 246 265 272 284 21 8 356 342 345 351 350 347 342 337 325 321 324 324 325 321 317 311 291 266 247 211 196 212 226 231 226 209 196 188 183 185 180 172 170 167 169 164
290 288 288 293 293 346 21 33 36 356 343 347 346 343 337 330 327 329 330 328 330 330 329 327 318 294 259 218 208 215 219 219 214 198 190 186 183 191 181 169 170 174 172 163
328 335 317 348 37 68 49 44 24 360 347 342 337 333 329 325 325 326 326 327 329 330 329 329 330 313 290 236 216 225 215 206 205 198 192 188 186 191 169 171 174 174 173 174
7 5 332 354 55 39 49 27 6 352 338 330 325 321 318 316 316 316 317 320 322 325 327 327 325 319 313 300 241 221 218 202 198 198 191 188 183 180 175 178 178 179 182 186
3 356 343 2 16 349 3 357 344 335 327 321 317 313 310 308 307 307 307 311 314 316 318 322 323 317 311 308 292 240 214 205 199 195 191 192 187 181 178 179 175 188 182 190
23 19 5 5 360 327 320 324 321 315 310 308 306 305 305 305 305 305 304 304 304 306 310 312 316 318 316 311 304 280 233 208 202 197 196 194 187 181 177 170 145 64 115 122